Showing default

DRAGON FREEDOM 3, 67796

Orbit data source: Space-Track

DRAGON FREEDOM 3, 67796 is a payload satellite owned by SpaceX (US) in LEO that was launched on Fri, 13 Feb 2026 UTC via an FALCON 9 launch vehicle from the Air Force Eastern Test Range (AFETR). Payload-class satellites include a variety of spacecraft equipped with specific instruments for various scientific and technological missions. These include communications satellites like Starlink; space stations such as the ISS; scientific satellites like the Hubble; Earth observation satellites from companies like Planet Labs, Umbra, and HawkEye 360; GPS; miniature CubeSats for education and research; and military/defense satellites.

Loading next visibility...
Identifier
67796, 2026-031A
Orbit
LEO
Country
Flag of USUS
Related business
Manufacturer
SpaceX
Mission
Operational Commercial Spaceship
Bus & Motor
DRAGON CM, Unknown motor
Mass
~13,055 kg wet, ~9,500 kg dry
Launch date (UTC)
2026-02-13 (4 months ago)
Launch vehicle
FALCON 9
Launch site
Air Force Eastern Test Range (AFETR)
Object type
Payload
Rocket body
Debris
Shape & HBR
Trunc Cone + Cyl + 4 Fin, 14.5 m
Radar Cross Section
21.677 m², Large (>1 m²)

Expand to show TLE details & history
Last TLE update: 13 hours ago

TLE from 13 hours ago
0 DRAGON FREEDOM 3
1 67796U 26031A   26171.41461525  .00008813  00000-0  16600-3 0  9998
2 67796  51.6327 284.1189 0004557 208.5194 151.5545 15.49333088572031
Epoch: 2026-06-20T09:57Z
TLE epoch observation values (Epoch: 2026-06-20T09:57:02.757Z)
Latitude
-0.00009°
Longitude
-133.77224°
Altitude
422.14 km
Speed
7.658 km/s
True Right ascension
18h 56m 28s
True Declination
0° 00' 00"
Sunlit
Object was in full shadow at epoch
Visualization orbit readout
Latitude
Unknown
Longitude
Unknown
Altitude
Unknown
Speed
Unknown
Apparent Right ascension
Unknown
Apparent Declination
Unknown
Sunlit
N/A
Visualization observer readout
Local Sidereal Time
10:18:34
Azimuth
Unknown
Elevation
Unknown
Doppler factor
Unknown
Orbital elements
Apogee altitude
422.282 km
Perigee altitude
416.087 km
Semi-major axis
6,797.322 km
Eccentricity
0.00046
Inclination
51.6327°
RAAN
284.1189°
Arg. of periapsis
208.5194°
True anomaly
151.57936°
Mean anomaly
151.5545°
Eccentric anomaly
151.56693°
Mean motion
3.8729 °/min
Orbital period
92.95 mins
BSTAR
0.000166
Loading maneuver chart data...
Computing Atmospheric mass density...
Loading historical data...
Loading historical data...
Loading historical data...
Loading historical data...
Loading historical data...
Loading historical data...
Loading historical data...
Other satellites on launch #31 in the year 2026 (2026-02-13 UTC)

Documentation

Showing up to 5 results
|